Regional Weather Roundup
Issued by NWS

Home | Current Version | Previous Version | Graphics & Text | Print | Product List | Glossary On
Versions: 1 2 3 4 5 6 7 8 9 10 11 12 13 14 15 16 17 18 19 20 21 22 23 24 25 26 27 28 29 30 31 32 33 34 35 36 37 38 39 40 41 42 43 44 45 46 47 48 49 50
000
ASUS43 KMPX 201901
RWRMN
WEATHER ROUNDUP FOR MINNESOTA
NATIONAL WEATHER SERVICE TWIN CITIES/CHANHASSEN MN
200 PM CDT MON APR 20 2015


NOTE: "FAIR" INDICATES FEW OR NO CLOUDS BELOW 12,000 FEET WITH NO
SIGNIFICANT WEATHER AND/OR OBSTRUCTIONS TO VISIBILITY. N/A MEANS
CURRENT SKY AND/OR WEATHER CONDITIONS ARE NOT AVAILABLE.

MNZ060>063-068>070-202000-
   Twin Cities Metro

CITY           SKY/WX    TMP DP  RH WIND       PRES   REMARKS
TWIN CITIES    CLOUDY    42  27  55 W17G28    29.52S
ST PAUL        CLOUDY    42  26  53 NW16G28   29.52S
CRYSTAL        CLOUDY    43  26  51 NW15      29.50F
BLAINE         CLOUDY    43  28  56 NW14G25   29.49F
LAKEVILLE      CLOUDY    39  28  65 NW16      29.52S
EDEN PRAIRIE   CLOUDY    42  26  53 W13G30    29.52S
SOUTH ST PAUL  CLOUDY    42  26  53 NW16G24   29.51S
LAKE ELMO      CLOUDY    41  30  65 W18       29.51R
$$
MNZ001>005-007-008-013>017-022>024-027-028-202000-
   Northwest Minnesota

CITY           SKY/WX    TMP DP  RH WIND       PRES   REMARKS
BEMIDJI        CLOUDY    32  25  75 NW23G30   29.46F WCI  19
HALLOCK        LGT SNOW  34  30  86 NW29G35   29.55F WCI  20
ROSEAU         LGT SNOW  34  28  80 NW23G29   29.46S WCI  22
WARROAD        LGT SNOW  36  30  80 NW21G28   29.44S
THIEF RVR FALL CLOUDY    34  27  75 NW26      29.52F WCI  21
CROOKSTON      CLOUDY    34  32  93 N26G35    29.57F FOG     WCI  21
FOSSTON        LGT SNOW  30  27  86 NW20G29   29.52S WCI  18
DETROIT LAKES  LGT RAIN  34  32  93 NW24G32   29.54F WCI  21
MOORHEAD       LGT RAIN  37  30  75 NW23G32   29.60F
PARK RAPIDS    LGT RAIN  42  25  50 NW23G38   29.48F
MAHNOMEN       FLURRIES  33  29  86 NW22G30   29.53F WCI  20
$$
MNZ006-009>011-018-025>026-202000-
   North Central Minnesota

CITY           SKY/WX    TMP DP  RH WIND       PRES   REMARKS
BAUDETTE       FLURRIES  33  27  78 W12       29.40F WCI  24
FLAG ISLAND    LGT SNOW  34  30  86 NW25G35   29.39F WCI  21
INTL FALLS     CLOUDY    32  26  78 W14G22    29.37F WCI  22
WASKISH        CLOUDY    32  27  80 W15G22    29.44S WCI  22
BIG FORK       CLOUDY    32  27  80 NW6G16    29.41S WCI  26
LONGVILLE      CLOUDY    34  25  69 W17G24    29.45F WCI  23
GRAND RAPIDS   CLOUDY    32  25  74 W18G28    29.41S WCI  20
CRANE LAKE     CLOUDY    34  27  75 N3        29.95
ORR            CLOUDY    32  25  74 W13G20    29.34F WCI  22
COOK           CLOUDY    30  27  86 W13G25    29.37S WCI  20
WALKER         CLOUDY    32  25  76 W16G28    29.46F WCI  21
$$
MNZ012-019>021-037-202000-
   Northeast Minnesota

CITY           SKY/WX    TMP DP  RH WIND       PRES   REMARKS
DULUTH         CLOUDY    36  27  69 W24G33    29.35S
ELY            CLOUDY    32  28  86 W12G24    29.32S WCI  23
HIBBING        CLOUDY    33  25  72 NW17      29.38F WCI  22
EVELETH        CLOUDY    32  28  86 W17G25    29.37S WCI  21
DULUTH HARBOR  CLOUDY    39  30  70 W18G30    29.39S
TWO HARBORS    CLOUDY    39  30  70 W12G23    29.32R
SILVER BAY     CLOUDY    39  28  65 W17G23    29.30R
GRAND MARAIS     N/A     39  31  72 NW17G44   29.19F
G MARAIS ARPRT FLURRIES  34  28  80 NW14G25   29.20F WCI  24
$$
MNZ029>031-032-039>041-046>048-054>057-064-202000-
   West Central Minnesota

CITY           SKY/WX    TMP DP  RH WIND       PRES   REMARKS
FERGUS FALLS   LGT RAIN  37  30  75 NW26G35   29.60F
WHEATON        LGT RAIN  36  30  80 NW21G29   29.64F
MORRIS         PTSUNNY   41  30  65 NW28G37   29.59F
ALEXANDRIA     CLOUDY    37  26  64 NW25G36   29.56F
ELBOW LAKE     CLOUDY    36  31  81 NW21G30   29.59S
WADENA         CLOUDY    34  27  75 NW23G35   29.52F WCI  22
GLENWOOD       PTSUNNY   37  28  70 W22G32    29.57S
APPLETON       MOSUNNY   37  34  87 NW21      29.63R
BENSON         CLOUDY    39  28  65 N23G32    29.61S
ORTONVILLE     CLOUDY    39  30  70 NW21G31   29.64S
MADISON        CLOUDY    39  32  75 NW20      29.64F
WILLMAR        FAIR      39  30  70 NW25G31   29.60S
$$
MNZ033>034-036-042>043-049>051-058-059-202000-
   Central Minnesota

CITY           SKY/WX    TMP DP  RH WIND       PRES   REMARKS
ST CLOUD       CLOUDY    40  26  57 NW22G33   29.52R
SAUK CENTRE    CLOUDY    38  26  62 W23G35    29.54F
PAYNESVILLE    CLOUDY    36  28  72 W24G35    29.57R
AITKIN         CLOUDY    39  27  60 NW12G18   29.43F
PINE RIVER     CLOUDY    36  27  69 W9G22     29.51F
BRAINERD       CLOUDY    36  26  67 W16G29    29.49R
STAPLES        CLOUDY    34  25  69 NW26G35   29.51S WCI  21
LONG PRAIRIE   CLOUDY    36  27  69 W18G31    29.53F
LITTLE FALLS   PTSUNNY   36  27  69 W17G29    29.52S
LITCHFIELD     CLOUDY    43  28  56 W22G33    29.55S
BUFFALO        CLOUDY    41  25  53 NW18G26   29.53S
MAPLE LAKE     CLOUDY    43  29  58 W20G25    29.53S
$$
MNZ037-044-045-052-053-202000-
   East Central Minnesota

CITY           SKY/WX    TMP DP  RH WIND       PRES   REMARKS
PRINCETON      PTSUNNY   45  28  53 W23G32    29.49S
MORA           CLOUDY    37  27  65 W15G21    29.47S
CAMBRIDGE      CLOUDY    43  28  56 W16G24    29.46F
RUSH CITY      CLOUDY    40  28  60 W15G23    29.46F
MOOSE LAKE     CLOUDY    37  28  70 W20       29.41S
HINCKLEY       CLOUDY    41  28  60 W13G23    29.44S
CLOQUET        CLOUDY    37  27  65 W20G28    29.39R
MCGREGOR       CLOUDY    36  28  75 W17G23    29.44S
$$
MNZ071>073-080-081-089-090-097-098-202000-
   Southwest Minnesota

CITY           SKY/WX    TMP DP  RH WIND       PRES   REMARKS
MONTEVIDEO     CLOUDY    43  32  65 N20       29.63S
GRANITE FALLS  LGT RAIN  38  35  89 W18G29    29.65S
CANBY          CLOUDY    40  32  74 NW14G20   29.66S
MARSHALL       CLOUDY    39  28  65 NW20G28   29.64S
REDWOOD FALLS  CLOUDY    41  31  67 NW24G31   29.61S
OLIVIA         CLOUDY    39  28  65 NW21G33   29.59S
PIPESTONE      PTSUNNY   45  25  45 NW24G37   29.65S
WORTHINGTON    CLOUDY    45  25  45 NW26G33   29.64S
JACKSON        CLOUDY    45  28  53 NW22G35   29.63S
TRACY          CLOUDY    40  32  72 NW20      29.65S
SLAYTON        CLOUDY    44  26  50 W26G36    29.64S
$$
MNZ065>067-074>077-082>085-091>093-202000-
   South Central Minnesota

CITY           SKY/WX    TMP DP  RH WIND       PRES   REMARKS
MANKATO        CLOUDY    43  27  52 W25G38    29.57R
NEW ULM        CLOUDY    43  28  56 NW26G35   29.59S
ST JAMES       DRIZZLE   39  36  87 NW20G26   29.63R
FAIRMONT       PTSUNNY   43  30  61 NW22G28   29.61F
GLENCOE        CLOUDY    42  31  64 W25       29.55S
FARIBAULT      CLOUDY    43  30  61 NW14G24   29.54S
OWATONNA       CLOUDY    43  28  56 NW25      29.54F
WASECA         CLOUDY    43  30  61 NW26G32   29.57S
ALBERT LEA     MIX PCPN  43  30  61 W15G24    29.56S
$$
MNZ078>079-086>088-094>096-202000-
   Southeast Minnesota

CITY           SKY/WX    TMP DP  RH WIND       PRES   REMARKS
ROCHESTER      CLOUDY    39  30  70 W24G32    29.52S
RED WING       CLOUDY    43  28  56 NW9G17    29.50S
STANTON        CLOUDY    42  29  61 NW23      29.52S
DODGE CENTER   CLOUDY    41  30  65 NW22G29   29.52S
WINONA         CLOUDY    41  32  70 NW18G25   29.51R
AUSTIN         CLOUDY    43  30  61 NW25G36   29.54S
PRESTON        CLOUDY    39  30  70 NW29G35   29.53R
$$
ABBREVIATIONS USED IN REMARKS
   TC - TEMPERATURES IN CELSIUS
  WCI - WIND CHILL INDEX
   HX - HEAT INDEX
  VSB - VISIBILITY
$$



USA.gov is the U.S. government's official web portal to all federal, state and local government web resources and services.